Preview of NWS' New Version of Forecast
This preview is not operational and should not be used for support decisions.

Regional Weather Roundup (RWR)

Issued by National Weather Service (NWS)

                            
000
ASUS46 KSEW 171010
RWRWA 

WASHINGTON REGIONAL WEATHER ROUNDUP
NATIONAL WEATHER SERVICE SEATTLE WA
300 AM PDT MON JUN 17 2019

NOTE:"FAIR" INDICATES FEW OR NO CLOUDS BELOW 12,000 FEET WITH NO 
SIGNIFICANT WEATHER AND/OR OBSTRUCTIONS TO VISIBILITY.

WAZ507-509-555>559-171100-
SEATTLE, TACOMA, EVERETT, AND VICINITY
  
CITY           SKY/WX    TMP DP  RH WIND       PRES   REMARKS
EVERETT        MOCLDY    54  52  93 N7        30.08R                  
BOEING FIELD   PTCLDY    59  53  80 W3        30.07R                  
RENTON         MOCLDY    60  54  80 S7        30.07R                  
SEATAC AIRPORT MOCLDY    58  53  84 SW7       30.07S                  
JBLM-MCCHORD   CLEAR     55  55 100 SW6       30.09R                  
PUYALLUP       MOCLDY    54  54 100 CALM      30.09R                  
BREMERTON      MOCLDY    52  51  97 SW3       30.08R                  
JBLM-FT LEWIS  CLEAR     55  55 100 SW3       30.08R                  
TACOMA NARROWS CLEAR     54  52  93 SW5       30.08R                  
$$
 
WAZ001-503-506-510-514-515-171100-
NORTH INTERIOR
  
CITY           SKY/WX    TMP DP  RH WIND       PRES   REMARKS
BELLINGHAM     CLOUDY    58  52  80 S10       30.03R                  
FRIDAY HARBOR  CLEAR     63  48  58 CALM      30.05R                  
EASTSOUND      CLEAR     55  52  88 S13       30.02R                  
PORT ANGELES   CLEAR     52  51  97 NW12      30.07S                  
EDIZ HOOK      FAIR      52  51  95 W16       30.06R                  
PORT TOWNSEND  FAIR      48  46  93 CALM      30.07R                  
NAS WHIDBEY    MOCLDY    56  50  80 SW9       30.10R                  
ARLINGTON      CLOUDY    54  51  90 N8        30.09R                  
BURLINGTON     CLOUDY    55  52  88 SE6       30.08R                  
$$
 
WAZ020-022-039-040-504-511-512-171100-
SOUTHWEST INTERIOR
  
CITY           SKY/WX    TMP DP  RH WIND       PRES   REMARKS
SHELTON        CLOUDY    55  51  86 W9        30.06R                  
OLYMPIA        MOCLDY    53  51  93 SE3       30.09R                  
CHEHALIS       CLOUDY    57  55  94 CALM      30.10R                  
KELSO          CLOUDY    58  53  84 NW5       30.11R                  
VANCOUVER      CLEAR     58  51  78 CALM      30.09R                  
SCAPPOOSE, OR  CLEAR     53  50  89 CALM      30.08R                  
PORTLAND, OR   PTCLDY    59  51  75 N6        30.09R                  
$$
 
WAZ021-516-517-171100-
WASHINGTON COAST
  
CITY           SKY/WX    TMP DP  RH WIND       PRES   REMARKS
FORKS          CLOUDY    52  51  97 CALM      30.12R                  
HOQUIAM        CLOUDY    53  53 100 W8        30.11R                  
ASTORIA, OR    CLOUDY    54  52  93 W6        30.12S                  
$$
 
WAZ019-023-024-040-567>569-171100-
CASCADE MOUNTAINS AND COLUMBIA GORGE
  
CITY           SKY/WX    TMP DP  RH WIND       PRES   REMARKS
STAMPEDE PASS  MOCLDY    49  46  90 VRB6      30.10S FOG              
TROUTDALE, OR  CLOUDY    59  52  77 VRB3      30.09R                  
HOOD RIVER, OR MOSUNNY   63  52  67 W8        29.98S                  
THE DALLES, OR PTCLDY    65  53  65 NW20      29.92S                  
$$

WAZ026-027-041>044-520-521-171100-
EAST SLOPES
  
CITY           SKY/WX    TMP DP  RH WIND       PRES   REMARKS
OMAK           CLEAR     63  49  60 N12       29.90S                  
WENATCHEE      PTCLDY    68  48  48 W7        29.92R                  
ELLENSBURG     PTCLDY    63  48  58 NW18G30   29.95R                  
YAKIMA         PTCLDY    68  45  43 NW13      29.93R                  
SUNNYSIDE ARPT MOSUNNY   57  52  82 CALM      29.89                   
YAKIMA TC      FAIR      64  45  50 E7        29.92S                  
$$

WAZ028-034-035-171100-
COLUMBIA BASIN
  
CITY           SKY/WX    TMP DP  RH WIND       PRES   REMARKS
EPHRATA        CLEAR     70  48  45 NW17      29.86S                  
MOSES LAKE     CLEAR     68  49  50 NW6       29.88R                  
PASCO          PTCLDY    72  53  51 S6        29.89R                  
RICHLAND ARPT  SUNNY     65  50  57 CALM      29.88R                  
HERMISTON, OR  PTCLDY    69  50  50 SW12      29.90R                  
$$

WAZ036>038-171100-
NORTHEAST WASHINGTON
  
CITY           SKY/WX    TMP DP  RH WIND       PRES   REMARKS
SPOKANE GEIGER MOCLDY    65  48  54 S6        29.92R                  
SPOKANE FELTS  CLEAR     61  54  77 CALM      29.91R                  
FAIRCHILD AFB  PTCLDY    62  46  55 W5        29.92S                  
COEURDALENE,ID CLEAR     64  54  69 SE8       29.92S                  
DEER PARK      PTCLDY    54  49  83 CALM      29.92R                  
$$

WAZ029>033-171100-
SOUTHEAST WASHINGTON
  
CITY           SKY/WX    TMP DP  RH WIND       PRES   REMARKS
PULLMAN        PTCLDY    57  49  74 CALM      29.96R                  
LEWISTON, ID   PTCLDY    65  51  60 CALM      29.89R                  
WALLA WALLA    MOCLDY    68  49  50 S10       29.93R                  
PENDLETON, OR  PTCLDY    64  48  56 SE6       29.94R                  
$$